SWA4004 KRIC-KBWI

Flight info

Callsign SWA4004
Flight time 0h 25m
Altitude 15000
Route LUCYL6 LUCYL SHLBK LOUIE MIIDY MIIDY3
Aircraft B737/M-SDE2E3FGHIRWXY/LB1

Departure

Time 2026-04-20 17:08
Airport Richmond International Airport (KRIC)

Arrival

Time 2026-04-20 17:33
Airport Baltimore/Washington International Thurgood Marshall Airport (KBWI)
Time Latitude Longitude Altitude Speed Heading
2026-04-20 16:46 37.50696 -77.33067 172 ft 0 kts 249°
2026-04-20 16:59 37.50703 -77.33044 172 ft 6 kts 248°
2026-04-20 17:00 37.50732 -77.32995 172 ft 2 kts 201°
2026-04-20 17:00 37.50743 -77.32990 172 ft 2 kts 197°
2026-04-20 17:00 37.50750 -77.32988 172 ft 0 kts 196°
2026-04-20 17:02 37.50741 -77.32990 172 ft 5 kts 189°
2026-04-20 17:03 37.50692 -77.32977 172 ft 8 kts 166°
2026-04-20 17:03 37.50635 -77.32973 172 ft 9 kts 195°
2026-04-20 17:03 37.50563 -77.32993 172 ft 12 kts 192°
2026-04-20 17:03 37.50482 -77.32956 172 ft 16 kts 112°
2026-04-20 17:04 37.50453 -77.32805 171 ft 20 kts 93°
2026-04-20 17:04 37.50442 -77.32612 167 ft 24 kts 93°
2026-04-20 17:04 37.50426 -77.32388 170 ft 27 kts 95°
2026-04-20 17:04 37.50407 -77.32153 169 ft 27 kts 95°
2026-04-20 17:05 37.50393 -77.31923 171 ft 25 kts 91°
2026-04-20 17:05 37.50386 -77.31710 171 ft 23 kts 101°
2026-04-20 17:05 37.50288 -77.31564 171 ft 23 kts 148°
2026-04-20 17:05 37.50158 -77.31458 168 ft 22 kts 147°
2026-04-20 17:06 37.50032 -77.31355 168 ft 21 kts 147°
2026-04-20 17:06 37.49905 -77.31253 166 ft 23 kts 147°
2026-04-20 17:06 37.49758 -77.31134 168 ft 28 kts 147°
2026-04-20 17:06 37.49592 -77.31008 169 ft 27 kts 150°
2026-04-20 17:07 37.49516 -77.30839 169 ft 26 kts 57°
2026-04-20 17:07 37.49605 -77.30712 169 ft 2 kts 350°
2026-04-20 17:07 37.49626 -77.30729 169 ft 15 kts 326°
2026-04-20 17:07 37.49960 -77.30996 168 ft 97 kts 328°
2026-04-20 17:08 37.50716 -77.31603 311 ft 149 kts 327°
2026-04-20 17:08 37.51588 -77.32326 1456 ft 146 kts 325°
2026-04-20 17:08 37.52592 -77.32857 2065 ft 178 kts 353°
2026-04-20 17:08 37.53833 -77.32408 2796 ft 196 kts 33°
2026-04-20 17:09 37.54725 -77.31054 3739 ft 202 kts 45°
2026-04-20 17:09 37.55681 -77.29610 4219 ft 232 kts 41°
2026-04-20 17:09 37.56850 -77.27988 4632 ft 263 kts 41°
2026-04-20 17:09 37.58123 -77.26274 5489 ft 278 kts 40°
2026-04-20 17:10 37.59492 -77.24473 6394 ft 290 kts 41°
2026-04-20 17:10 37.60932 -77.22612 7262 ft 302 kts 41°
2026-04-20 17:10 37.62429 -77.20705 8295 ft 309 kts 42°
2026-04-20 17:10 37.63971 -77.18756 9304 ft 318 kts 43°
2026-04-20 17:11 37.65562 -77.16754 10262 ft 328 kts 44°
2026-04-20 17:11 37.67242 -77.14657 10761 ft 354 kts 42°
2026-04-20 17:11 37.69181 -77.12539 11135 ft 379 kts 37°
2026-04-20 17:11 37.71280 -77.10449 11948 ft 389 kts 35°
2026-04-20 17:12 37.72703 -77.09058 12571 ft 392 kts 35°
2026-04-20 17:12 37.74877 -77.06928 13492 ft 400 kts 34°
2026-04-20 17:12 37.77090 -77.04737 14331 ft 407 kts 34°
2026-04-20 17:12 37.80054 -77.01768 14880 ft 411 kts 35°
2026-04-20 17:13 37.82292 -76.99506 15016 ft 418 kts 35°
2026-04-20 17:13 37.83840 -76.97940 15011 ft 425 kts 35°
2026-04-20 17:13 37.86162 -76.95587 15011 ft 430 kts 35°
2026-04-20 17:13 37.88493 -76.93222 15008 ft 429 kts 35°
2026-04-20 17:14 37.90819 -76.90856 15013 ft 428 kts 36°
2026-04-20 17:14 37.93044 -76.88327 15007 ft 430 kts 41°
2026-04-20 17:14 37.95153 -76.85638 15011 ft 430 kts 43°
2026-04-20 17:14 37.97229 -76.82901 15003 ft 430 kts 44°
2026-04-20 17:15 37.99307 -76.80176 15004 ft 430 kts 43°
2026-04-20 17:15 38.01406 -76.77462 15007 ft 430 kts 43°
2026-04-20 17:15 38.03487 -76.74804 15003 ft 430 kts 42°
2026-04-20 17:15 38.05606 -76.72114 15002 ft 430 kts 42°
2026-04-20 17:16 38.07721 -76.69429 15006 ft 430 kts 42°
2026-04-20 17:16 38.09880 -76.66780 14997 ft 429 kts 38°
2026-04-20 17:16 38.12186 -76.64397 15003 ft 427 kts 33°
2026-04-20 17:16 38.14576 -76.62140 15005 ft 427 kts 32°
2026-04-20 17:17 38.16976 -76.59912 15008 ft 427 kts 32°
2026-04-20 17:17 38.19364 -76.57667 15003 ft 427 kts 33°
2026-04-20 17:17 38.21709 -76.55423 15003 ft 428 kts 33°
2026-04-20 17:17 38.24073 -76.53128 15001 ft 428 kts 34°
2026-04-20 17:18 38.26434 -76.50819 15007 ft 428 kts 34°
2026-04-20 17:18 38.28794 -76.48508 15005 ft 428 kts 34°
2026-04-20 17:18 38.31151 -76.46199 14996 ft 428 kts 34°
2026-04-20 17:18 38.33561 -76.43998 14993 ft 424 kts 27°
2026-04-20 17:19 38.36170 -76.42295 15005 ft 418 kts 16°
2026-04-20 17:19 38.38868 -76.40969 14998 ft 411 kts 14°
2026-04-20 17:19 38.41505 -76.39718 14990 ft 399 kts 14°
2026-04-20 17:19 38.44090 -76.38491 14993 ft 395 kts 14°
2026-04-20 17:20 38.46669 -76.37254 15011 ft 395 kts 14°
2026-04-20 17:20 38.49244 -76.36003 14870 ft 397 kts 14°
2026-04-20 17:20 38.51815 -76.34743 14362 ft 402 kts 15°
2026-04-20 17:20 38.54425 -76.33454 13743 ft 400 kts 15°
2026-04-20 17:21 38.57019 -76.32170 13077 ft 397 kts 16°
2026-04-20 17:21 38.59580 -76.30918 12420 ft 392 kts 14°
2026-04-20 17:21 38.62196 -76.30100 11840 ft 379 kts
2026-04-20 17:21 38.64729 -76.29929 11581 ft 355 kts 354°
2026-04-20 17:22 38.67155 -76.29909 11360 ft 339 kts 354°
2026-04-20 17:22 38.69442 -76.29900 11177 ft 319 kts 354°
2026-04-20 17:22 38.71630 -76.29889 10731 ft 311 kts 354°
2026-04-20 17:22 38.73783 -76.29873 10212 ft 307 kts 354°
2026-04-20 17:23 38.75911 -76.29850 9659 ft 304 kts 355°
2026-04-20 17:23 38.77998 -76.29820 9189 ft 297 kts 354°
2026-04-20 17:23 38.80042 -76.29787 8694 ft 290 kts 354°
2026-04-20 17:23 38.82041 -76.29754 8198 ft 285 kts 354°
2026-04-20 17:24 38.84009 -76.29721 7755 ft 278 kts 353°
2026-04-20 17:24 38.85878 -76.29868 7419 ft 258 kts 336°
2026-04-20 17:24 38.87380 -76.30873 7128 ft 236 kts 315°
2026-04-20 17:24 38.88455 -76.32405 6802 ft 228 kts 301°
2026-04-20 17:25 38.89352 -76.34038 6446 ft 226 kts 301°
2026-04-20 17:25 38.90259 -76.35710 6090 ft 225 kts 302°
2026-04-20 17:25 38.91144 -76.37335 5740 ft 224 kts 303°
2026-04-20 17:25 38.92039 -76.38976 5381 ft 223 kts 304°
2026-04-20 17:26 38.92931 -76.40605 5034 ft 223 kts 305°
2026-04-20 17:26 38.93823 -76.42233 4669 ft 222 kts 306°
2026-04-20 17:26 38.94711 -76.43854 4462 ft 217 kts 306°
2026-04-20 17:26 38.95647 -76.45351 4354 ft 213 kts 312°
2026-04-20 17:27 38.96630 -76.46732 4246 ft 206 kts 313°
2026-04-20 17:27 38.97571 -76.48048 4155 ft 199 kts 313°
2026-04-20 17:27 38.98488 -76.49339 4082 ft 192 kts 313°
2026-04-20 17:27 38.99412 -76.50561 3903 ft 190 kts 321°
2026-04-20 17:28 39.00466 -76.51562 3723 ft 187 kts 324°
2026-04-20 17:28 39.01526 -76.52519 3511 ft 185 kts 324°
2026-04-20 17:28 39.02579 -76.53458 3266 ft 184 kts 326°
2026-04-20 17:28 39.03629 -76.54364 3047 ft 183 kts 325°
2026-04-20 17:29 39.04674 -76.55310 2817 ft 181 kts 325°
2026-04-20 17:29 39.05697 -76.56256 2605 ft 183 kts 324°
2026-04-20 17:29 39.06740 -76.57227 2382 ft 185 kts 324°
2026-04-20 17:29 39.07767 -76.58185 2170 ft 184 kts 324°
2026-04-20 17:30 39.08778 -76.59123 2059 ft 171 kts 324°
2026-04-20 17:30 39.09674 -76.59959 1973 ft 151 kts 324°
2026-04-20 17:30 39.10497 -76.60726 1797 ft 141 kts 324°
2026-04-20 17:30 39.11280 -76.61455 1603 ft 134 kts 325°
2026-04-20 17:31 39.12001 -76.62126 1457 ft 125 kts 324°
2026-04-20 17:31 39.12704 -76.62781 1256 ft 124 kts 323°
2026-04-20 17:31 39.13408 -76.63438 1043 ft 125 kts 325°
2026-04-20 17:31 39.14114 -76.64092 835 ft 125 kts 324°
2026-04-20 17:32 39.14821 -76.64750 617 ft 126 kts 322°
2026-04-20 17:32 39.15527 -76.65406 435 ft 124 kts 323°
2026-04-20 17:32 39.16214 -76.66047 267 ft 121 kts 324°
2026-04-20 17:32 39.16887 -76.66673 149 ft 116 kts 323°
2026-04-20 17:33 39.17406 -76.67152 150 ft 62 kts 324°
2026-04-20 17:33 39.17646 -76.67273 148 ft 31 kts 26°
2026-04-20 17:33 39.17743 -76.67156 155 ft 11 kts 69°
2026-04-20 17:33 39.17753 -76.67093 156 ft 0 kts 81°
2026-04-20 17:34 39.17754 -76.67081 156 ft 0 kts 82°